Punta Gorda, FL

10:15 PM EST on December 14, 2019 (GMT -0500)
Charlotte County

Weather History for KPGD - September, 2019

Change the Weather History Date:

Friday, September 13, 2019

  Actual Average Record
Temperature  
Mean Temperature 84 °F -  
Max Temperature 91 °F 87 °F 93 °F (1997)
Min Temperature 77 °F 72 °F 70 °F (2000)
Cooling Degree Days 18    
Growing Degree Days 34 (Base 50)    
Moisture  
Dew Point 75 °F    
Average Humidity 82    
Maximum Humidity 100    
Minimum Humidity 57    
Precipitation  
Precipitation 0.03 in - - ()
Sea Level Pressure  
Sea Level Pressure 29.98 in    
Wind  
Wind Speed 10 mph (ENE)    
Max Wind Speed 24 mph    
Max Gust Speed 31 mph    
Visibility 10 miles    
Events Rain , Thunderstorm    
Averages and records for this station are not official NWS values.
T = Trace of Precipitation, MM = Missing Value Source: NWS Daily Summary

Daily Weather History Graph

Daily Weather History Graph

Search for Another Location

Airport or City:

Astronomy

Sep. 13, 2019 Rise Set
Actual Time 7:12 AM EDT 7:34 PM EDT
Civil Twilight 6:49 AM EDT 7:58 PM EDT
Nautical Twilight 6:21 AM EDT 8:25 PM EDT
Astronomical Twilight 5:54 AM EDT 8:52 PM EDT
Moon 7:41 PM EDT (9/13) 6:37 AM EDT (9/13)
Length of Visible Light 13h 09m
Length of Day
12h 22m
Full, 100% of the Moon is Illuminated
Sep 13
Full
Sep 14
Full
Sep 21
Last Quarter
Sep 28
New
Oct 5
First Quarter

Hourly Weather History & Observations

Time (EDT) Temp. Heat Index Dew Point Humidity Pressure Visibility Wind Dir Wind Speed Gust Speed Precip Events Conditions
12:53 AM 78.1 °F - 75.9 °F 93% 29.99 in 10.0 mi NE 8.1 mph - N/A   Clear
1:53 AM 78.1 °F - 77.0 °F 96% 29.98 in 10.0 mi NE 9.2 mph - N/A   Partly Cloudy
2:53 AM 78.1 °F - 77.0 °F 96% 29.97 in 10.0 mi NE 8.1 mph - N/A   Scattered Clouds
3:53 AM 77.0 °F - 77.0 °F 100% 29.96 in 10.0 mi NE 5.8 mph - N/A   Clear
4:53 AM 77.0 °F - 77.0 °F 100% 29.96 in 10.0 mi NE 6.9 mph - N/A   Clear
5:53 AM 77.0 °F - 75.9 °F 96% 29.97 in 10.0 mi NE 4.6 mph - N/A   Scattered Clouds
6:03 AM 77.0 °F - 75.0 °F 94% 29.97 in 10.0 mi NE 4.6 mph - N/A   Mostly Cloudy
6:30 AM 77.0 °F - 75.9 °F 96% 29.98 in 10.0 mi NNE 5.8 mph - 0.00 in Rain Light Rain
6:53 AM 77.0 °F - 77.0 °F 100% 29.98 in 10.0 mi NNE 5.8 mph - 0.00 in   Clear
7:53 AM 77.0 °F - 77.0 °F 100% 29.99 in 9.0 mi NNE 6.9 mph - N/A   Partly Cloudy
8:53 AM 81.0 °F 87.9 °F 77.0 °F 88% 30.01 in 10.0 mi NE 11.5 mph - N/A   Clear
9:53 AM 84.0 °F 93.7 °F 77.0 °F 79% 30.01 in 10.0 mi ENE 12.7 mph - N/A   Scattered Clouds
10:53 AM 86.0 °F 95.1 °F 75.0 °F 70% 30.01 in 10.0 mi ENE 15.0 mph - N/A   Scattered Clouds
11:53 AM 89.1 °F 98.0 °F 73.9 °F 61% 30.00 in 10.0 mi ENE 21.9 mph 27.6 mph N/A   Scattered Clouds
12:53 PM 84.9 °F 92.1 °F 73.9 °F 69% 29.99 in 10.0 mi East 15.0 mph 27.6 mph 0.00 in Rain Light Rain
1:53 PM 90.0 °F 99.0 °F 73.9 °F 59% 29.96 in 10.0 mi ENE 17.3 mph 29.9 mph 0.03 in Thunderstorm Mostly Cloudy
2:09 PM 89.1 °F 99.1 °F 75.0 °F 63% 29.96 in 10.0 mi East 16.1 mph 24.2 mph 0.00 in Rain Light Rain
2:53 PM 88.0 °F 93.8 °F 71.1 °F 57% 29.95 in 10.0 mi East 19.6 mph 26.5 mph 0.00 in   Clear
3:53 PM 86.0 °F 90.7 °F 70.0 °F 59% 29.95 in 10.0 mi East 24.2 mph 31.1 mph N/A   Clear
4:53 PM 84.9 °F 91.4 °F 73.0 °F 67% 29.96 in 10.0 mi ENE 17.3 mph 25.3 mph N/A   Partly Cloudy
5:31 PM 80.1 °F 83.8 °F 72.0 °F 76% 29.96 in 10.0 mi ESE 12.7 mph - N/A   Mostly Cloudy
5:53 PM 80.1 °F 85.4 °F 75.9 °F 87% 29.97 in 10.0 mi SE 15.0 mph - N/A   Overcast
6:53 PM 82.9 °F 89.4 °F 73.9 °F 74% 29.96 in 10.0 mi ENE 16.1 mph - N/A   Clear
7:53 PM 82.9 °F 90.2 °F 75.0 °F 77% 29.97 in 10.0 mi ENE 15.0 mph - N/A   Clear
8:53 PM 81.0 °F 86.7 °F 75.0 °F 82% 29.97 in 10.0 mi East 13.8 mph - N/A   Clear
9:53 PM 80.1 °F 85.4 °F 75.9 °F 87% 30.01 in 10.0 mi ENE 10.4 mph - N/A   Clear
10:53 PM 81.0 °F 87.3 °F 75.9 °F 85% 30.01 in 10.0 mi ENE 10.4 mph - N/A   Clear
11:53 PM 78.1 °F - 75.9 °F 93% 30.01 in 10.0 mi NNE 6.9 mph - N/A   Clear